Location: Archemont
(49.1579°N, 1.7598°E)
Time: 06:09:08
(UTC+00:00)

Transit 2A - Pass Details

Date: 15 April 2024
Orbit: 594 x 958 km, 66.7° (Epoch: 21 May)

Event Time Altitude Azimuth Distance (km) Brightness Sun altitude
Rises 14:40:48 0° 326° (NW) 3,154 9.2 37.7°
Reaches altitude 10° 14:43:15 10° 335° (NNW) 2,287 8.5 37.3°
Maximum altitude 14:48:07 37° 43° (NE) 1,251 7.0 36.7°
Drops below altitude 10° 14:53:26 10° 109° (ESE) 2,505 8.4 35.9°
Sets 14:56:14 0° 118° (ESE) 3,493 9.1 35.5°
